Weather History for Hays, KS

Change the Weather History Date:

Friday, February 1, 2013

  Actual Average Record
Temperature  
Mean Temperature 24 °F -  
Max Temperature 37 °F 38 °F 73 °F (2003)
Min Temperature 12 °F 19 °F -2 °F (2011)
Degree Days  
Heating Degree Days 40    
Moisture  
Dew Point 19 °F    
Average Humidity 73    
Maximum Humidity 86    
Minimum Humidity 52    
Precipitation  
Precipitation 0.00 in - - ()
Sea Level Pressure  
Sea Level Pressure 30.16 in    
Wind  
Wind Speed 10 mph (SSW)    
Max Wind Speed 22 mph    
Max Gust Speed 28 mph    
Visibility 10 miles    
Events      
Averages and records for this station are not official NWS values.
T = Trace of Precipitation, MM = Missing Value Source: NWS Daily Summary

Daily Weather History Graph

Daily Weather History Graph

Search for Another Location

Airport:

Trip Planner

Search our weather history database for the weather conditions in past years. The results will help you decide how hot, cold, wet, or windy it might be!

Date:

Astronomy

Feb. 01, 2013 Rise Set
Actual Time 7:42 AM CST 5:59 PM CST
Civil Twilight 7:14 AM CST 6:27 PM CST
Nautical Twilight 6:43 AM CST 6:58 PM CST
Astronomical Twilight 6:11 AM CST 7:30 PM CST
Moon No Moon Rise 10:21 AM CST (2/1)
Length of Visible Light 11h 12m
Length of Day
10h 16m
Waning Gibbous, 70% of the Moon is Illuminated
Feb 1
Waning Gibbous
Feb 3
Last Quarter
Feb 10
New
Feb 17
First Quarter
Feb 25
Full

Hourly Weather History & Observations

Time (CST) Temp. Windchill Dew Point Humidity Pressure Visibility Wind Dir Wind Speed Gust Speed Precip Events Conditions
12:15 AM 19.4 °F 9.5 °F 14.0 °F 80% 30.33 in 10.0 mi South 8.1 mph - N/A   Overcast
12:35 AM 19.4 °F 10.4 °F 12.2 °F 74% 30.32 in 10.0 mi South 6.9 mph - N/A   Overcast
1:15 AM 15.8 °F 5.1 °F 10.4 °F 79% 30.30 in 10.0 mi South 8.1 mph - N/A   Clear
1:35 AM 15.8 °F 6.1 °F 10.4 °F 79% 30.31 in 10.0 mi SSW 6.9 mph - N/A   Clear
1:55 AM 15.8 °F 6.1 °F 8.6 °F 73% 30.30 in 10.0 mi SSW 6.9 mph - N/A   Clear
2:15 AM 14.0 °F 2.9 °F 8.6 °F 79% 30.30 in 10.0 mi SSW 8.1 mph - N/A   Clear
2:35 AM 14.0 °F 3.9 °F 8.6 °F 79% 30.30 in 10.0 mi SSW 6.9 mph - N/A   Clear
3:15 AM 12.2 °F 1.7 °F 8.6 °F 85% 30.29 in 10.0 mi SSW 6.9 mph - N/A   Clear
3:35 AM 14.0 °F 1.2 °F 8.6 °F 79% 30.28 in 10.0 mi SSW 10.4 mph - N/A   Clear
3:55 AM 14.0 °F 3.9 °F 8.6 °F 79% 30.28 in 10.0 mi SSW 6.9 mph - N/A   Clear
4:15 AM 14.0 °F 3.9 °F 8.6 °F 79% 30.28 in 10.0 mi SSW 6.9 mph - N/A   Clear
4:35 AM 14.0 °F 5.1 °F 10.4 °F 86% 30.27 in 10.0 mi South 5.8 mph - N/A   Clear
4:55 AM 15.8 °F 5.1 °F 10.4 °F 79% 30.26 in 10.0 mi SW 8.1 mph - N/A   Clear
5:15 AM 15.8 °F 5.1 °F 10.4 °F 79% 30.25 in 10.0 mi SW 8.1 mph - N/A   Partly Cloudy
5:35 AM 15.8 °F 3.4 °F 12.2 °F 86% 30.25 in 10.0 mi SW 10.4 mph - N/A   Mostly Cloudy
6:15 AM 19.4 °F 7.9 °F 15.8 °F 86% 30.25 in 10.0 mi SSW 10.4 mph - N/A   Overcast
6:35 AM 19.4 °F 6.6 °F 15.8 °F 86% 30.25 in 10.0 mi SW 12.7 mph - N/A   Overcast
6:55 AM 19.4 °F 6.6 °F 15.8 °F 86% 30.25 in 10.0 mi SW 12.7 mph - N/A   Overcast
7:15 AM 19.4 °F 7.9 °F 14.0 °F 80% 30.24 in 10.0 mi SW 10.4 mph - N/A   Overcast
7:35 AM 19.4 °F 8.6 °F 14.0 °F 80% 30.24 in 10.0 mi SSW 9.2 mph - N/A   Overcast
8:15 AM 19.4 °F 4.5 °F 14.0 °F 80% 30.24 in 10.0 mi SSW 17.3 mph - N/A   Overcast
8:35 AM 19.4 °F 6.0 °F 12.2 °F 74% 30.23 in 10.0 mi SSW 13.8 mph - N/A   Scattered Clouds
8:55 AM 19.4 °F 5.5 °F 12.2 °F 74% 30.23 in 10.0 mi South 15.0 mph - N/A   Clear
9:15 AM 19.4 °F 6.6 °F 12.2 °F 74% 30.23 in 10.0 mi SSW 12.7 mph - N/A   Clear
9:35 AM 19.4 °F 5.5 °F 14.0 °F 80% 30.23 in 10.0 mi SSW 15.0 mph - N/A   Clear
10:15 AM 24.8 °F 10.7 °F 17.6 °F 74% 30.21 in 10.0 mi SW 19.6 mph - N/A   Clear
10:35 AM 26.6 °F 14.7 °F 17.6 °F 69% 30.21 in 10.0 mi SW 15.0 mph - N/A   Clear
11:15 AM 28.4 °F 15.4 °F 19.4 °F 69% 30.21 in 10.0 mi SW 19.6 mph - N/A   Clear
11:35 AM 30.2 °F 17.8 °F 19.4 °F 64% 30.19 in 10.0 mi SSW 19.6 mph 24.2 mph N/A   Clear
12:15 PM 32.0 °F 20.1 °F 21.2 °F 64% 30.16 in 10.0 mi SSW 19.6 mph - N/A   Clear
12:35 PM 32.0 °F 20.1 °F 21.2 °F 64% 30.14 in 10.0 mi SSW 19.6 mph 27.6 mph N/A   Clear
12:55 PM 33.8 °F 22.2 °F 21.2 °F 60% 30.13 in 10.0 mi SSW 20.7 mph 24.2 mph N/A   Clear
1:15 PM 33.8 °F 22.8 °F 21.2 °F 60% 30.12 in 10.0 mi SSW 18.4 mph - N/A   Clear
1:35 PM 33.8 °F 22.2 °F 21.2 °F 60% 30.12 in 10.0 mi SSW 20.7 mph - N/A   Clear
1:55 PM 35.6 °F 24.8 °F 19.4 °F 52% 30.11 in 10.0 mi SSW 19.6 mph - N/A   Clear
2:15 PM 35.6 °F 24.2 °F 21.2 °F 56% 30.09 in 10.0 mi SSW 21.9 mph 26.5 mph N/A   Scattered Clouds
2:35 PM 35.6 °F 24.2 °F 19.4 °F 52% 30.08 in 10.0 mi SSW 21.9 mph - N/A   Mostly Cloudy
2:55 PM 35.6 °F 24.8 °F 19.4 °F 52% 30.08 in 10.0 mi SSW 19.6 mph 23.0 mph N/A   Partly Cloudy
3:15 PM 35.6 °F 25.2 °F 21.2 °F 56% 30.07 in 10.0 mi SSW 18.4 mph - N/A   Clear
3:35 PM 37.4 °F 27.5 °F 23.0 °F 56% 30.05 in 10.0 mi South 18.4 mph - N/A   Clear
4:15 PM 37.4 °F 28.9 °F 23.0 °F 56% 30.05 in 10.0 mi SSW 13.8 mph - N/A   Clear
4:35 PM 37.4 °F 28.5 °F 24.8 °F 60% 30.04 in 10.0 mi SSW 15.0 mph - N/A   Clear
4:55 PM 37.4 °F 29.8 °F 24.8 °F 60% 30.04 in 10.0 mi South 11.5 mph - N/A   Clear
5:15 PM 37.4 °F 30.3 °F 24.8 °F 60% 30.03 in 10.0 mi SSW 10.4 mph - N/A   Clear
5:35 PM 37.4 °F 31.4 °F 24.8 °F 60% 30.04 in 10.0 mi SSW 8.1 mph - N/A   Clear
5:55 PM 35.6 °F 28.0 °F 24.8 °F 65% 30.04 in 10.0 mi SSW 10.4 mph - N/A   Clear
6:15 PM 33.8 °F 27.0 °F 24.8 °F 70% 30.04 in 10.0 mi South 8.1 mph - N/A   Clear
6:35 PM 33.8 °F 27.7 °F 24.8 °F 70% 30.05 in 10.0 mi South 6.9 mph - N/A   Clear
6:55 PM 32.0 °F 24.8 °F 24.8 °F 75% 30.05 in 10.0 mi SSW 8.1 mph - N/A   Clear
7:15 PM 33.8 °F 28.6 °F 24.8 °F 70% 30.05 in 10.0 mi South 5.8 mph - N/A   Clear
7:35 PM 32.0 °F 26.4 °F 24.8 °F 75% 30.06 in 10.0 mi SSW 5.8 mph - N/A   Clear
7:55 PM 33.8 °F 29.6 °F 24.8 °F 70% 30.07 in 10.0 mi SW 4.6 mph - N/A   Clear
8:15 PM 32.0 °F 27.5 °F 24.8 °F 75% 30.07 in 10.0 mi SW 4.6 mph - N/A   Partly Cloudy
8:35 PM 32.0 °F 27.5 °F 24.8 °F 75% 30.08 in 10.0 mi WSW 4.6 mph - N/A   Partly Cloudy
8:55 PM 32.0 °F 26.4 °F 24.8 °F 75% 30.09 in 10.0 mi West 5.8 mph - N/A   Mostly Cloudy
9:15 PM 30.2 °F 24.3 °F 24.8 °F 80% 30.08 in 10.0 mi SSW 5.8 mph - N/A   Mostly Cloudy
9:35 PM 30.2 °F 23.4 °F 24.8 °F 80% 30.09 in 10.0 mi SW 6.9 mph - N/A   Mostly Cloudy
9:55 PM 32.0 °F 25.6 °F 24.8 °F 75% 30.09 in 10.0 mi WSW 6.9 mph - N/A   Mostly Cloudy
10:15 PM 30.2 °F 24.3 °F 24.8 °F 80% 30.09 in 10.0 mi West 5.8 mph - N/A   Mostly Cloudy
10:35 PM 32.0 °F 24.8 °F 26.6 °F 80% 30.09 in 10.0 mi WSW 8.1 mph - N/A   Scattered Clouds
10:55 PM 32.0 °F 25.6 °F 26.6 °F 80% 30.09 in 10.0 mi WSW 6.9 mph - N/A   Partly Cloudy
11:15 PM 30.2 °F 23.4 °F 24.8 °F 80% 30.10 in 10.0 mi SW 6.9 mph - N/A   Clear
11:35 PM 30.2 °F 22.6 °F 26.6 °F 86% 30.10 in 10.0 mi WSW 8.1 mph - N/A   Partly Cloudy
11:55 PM 30.2 °F 23.4 °F 26.6 °F 86% 30.10 in 10.0 mi SW 6.9 mph - N/A   Mostly Cloudy